User: anonymous   Login
Location: Unspecified
(0.0000°N, 0.0000°E)
Time: 04:59:35
(UTC+00:00)
Language:

Uribyol 2 - Orbit

View from above orbital plane
View from above orbital plane
View from above satellite
View from above satellite

Ground track
Ground track

The orbit data is extracted from the following two-line orbital elements,

1 22828U 93061F   24170.88736697  .00000206  00000-0  95051-4 0  9991
2 22828  98.7858 222.8386 0010314  29.2953 330.8806 14.31263200571608
Epoch (UTC): 18 June 2024 21:17:48
Eccentricity: 0.0010314
inclination: 98.7858°
perigee height: 780 km
apogee height: 795 km
right ascension of ascending node: 222.8386°
argument of perigee: 29.2953°
revolutions per day: 14.31263200
mean anomaly at epoch: 330.8806°
orbit number at epoch: 57160

The dashed part of the orbit path shows where the satellite is in the earth's shadow,  

DLR